GW0029 Weather Reports


Display with metric or nautical units.
time (UTC)temp
F
wind
direction
speed
MPH
gust
MPH
rain 1hr
in
rain 24hr
in
rain mn
in
humidity
%
barometer
mb
20260905042503 57 266 11.0 25.0 0.00 0.10 0.00 93 998.9
20260905042004 57 269 12.0 21.0 0.00 0.10 0.00 93 998.9
20260905041004 58 272 9.0 18.0 0.00 0.10 0.00 90 998.9
20260905040503 58 276 9.0 21.0 0.00 0.10 0.00 89 998.9
20260905040005 58 271 10.0 21.0 0.00 0.10 0.00 88 998.9
20260905035503 58 272 12.0 19.0 0.00 0.10 0.00 88 999.9
20260905035005 58 273 13.0 21.0 0.00 0.10 0.00 88 999.9
20260905034005 58 271 12.0 20.0 0.00 0.10 0.00 89 998.9
20260905033503 58 278 12.0 19.0 0.00 0.10 0.00 89 998.9
20260905033005 58 277 13.0 20.0 0.00 0.10 0.00 89 998.9
20260905032503 58 271 12.0 20.0 0.00 0.10 0.00 89 998.9
20260905032004 58 270 11.0 19.0 0.00 0.10 0.00 89 998.9
20260905031504 58 270 11.0 19.0 0.00 0.10 0.00 89 998.9
20260905031004 58 270 11.0 24.0 0.00 0.10 0.00 90 998.9
20260905025503 57 263 13.0 22.0 0.00 0.10 0.00 90 998.9
20260905024503 57 274 10.0 23.0 0.00 0.10 0.00 92 998.9
20260905024004 57 271 12.0 23.0 0.00 0.10 0.00 92 997.9
20260905023503 57 278 12.0 20.0 0.00 0.10 0.00 92 997.9
20260905023005 57 280 9.0 20.0 0.00 0.10 0.00 92 997.9
20260905022503 57 279 8.0 15.0 0.00 0.10 0.00 92 997.9
20260905022005 57 286 9.0 18.0 0.00 0.10 0.00 92 997.9
20260905021503 57 282 11.0 21.0 0.00 0.10 0.00 92 997.9
20260905021005 57 276 10.0 21.0 0.00 0.10 0.00 91 996.9
20260905020503 58 277 10.0 18.0 0.00 0.10 0.00 92 996.9
20260905020005 57 272 10.0 17.0 0.00 0.10 0.00 91 996.9
20260905015503 57 269 11.0 17.0 0.00 0.10 0.00 91 996.9
20260905014503 57 278 12.0 19.0 0.00 0.10 0.00 92 996.9
20260905014005 57 289 13.0 21.0 0.00 0.10 0.00 92 998.9
20260905013503 57 282 12.0 21.0 0.00 0.10 0.00 92 998.9
20260905013005 57 263 11.0 25.0 0.00 0.10 0.00 93 998.9
20260905012503 57 265 10.0 25.0 0.00 0.10 0.00 93 997.9
20260905012005 57 266 8.0 16.0 0.00 0.10 0.00 94 997.9
20260905011503 57 261 8.0 20.0 0.00 0.10 0.00 95 997.9
20260905011005 57 267 9.0 20.0 0.00 0.10 0.00 94 997.9
20260905010503 57 269 9.0 19.0 0.00 0.10 0.00 94 997.9
20260905010005 57 271 9.0 19.0 0.00 0.10 0.00 94 997.9
20260905005005 57 282 9.0 20.0 0.00 0.10 0.00 95 997.9
20260905004503 57 283 9.0 20.0 0.00 0.10 0.00 96 997.9
20260905004004 57 291 9.0 19.0 0.00 0.10 0.00 96 997.9
20260905003504 57 282 10.0 17.0 0.00 0.10 0.00 96 997.9
20260905003005 57 266 9.0 16.0 0.00 0.10 0.00 97 997.9
20260905002503 57 262 8.0 18.0 0.00 0.10 0.00 96 997.9
20260905002005 57 261 10.0 27.0 0.00 0.10 0.00 96 997.9
20260905001503 57 267 10.0 27.0 0.00 0.10 0.00 100 997.9
20260905001005 57 275 10.0 17.0 0.00 0.10 0.00 100 997.9
20260905000504 57 279 9.0 17.0 0.00 0.10 0.00 100 997.9
20260905000004 55 282 8.0 18.0 0.00 0.10 0.00 100 997.9
20260904235504 55 278 8.0 18.0 0.00 0.10 0.00 100 997.9
20260904235004 55 283 7.0 17.0 0.00 0.10 0.00 100 997.9
20260904234504 55 277 8.0 17.0 0.00 0.10 0.00 100 997.9
20260904233004 55 257 8.0 14.0 0.00 0.10 0.00 100 997.9
20260904232503 55 263 8.0 15.0 0.00 0.10 0.00 100 996.9
20260904232005 55 261 8.0 15.0 0.00 0.10 0.00 100 996.9
20260904231504 55 265 9.0 14.0 0.00 0.10 0.00 100 996.9
20260904231004 55 280 10.0 18.0 0.00 0.10 0.00 100 996.9
20260904230504 55 274 10.0 18.0 0.00 0.10 0.00 100 996.9
20260904230004 55 270 11.0 19.0 0.00 0.10 0.00 100 996.9
20260904225503 55 278 10.0 19.0 0.00 0.10 0.00 100 995.9
20260904225004 55 273 9.0 20.0 0.00 0.10 0.00 100 995.9
20260904224503 55 265 10.0 20.0 0.00 0.10 0.00 100 995.9
20260904224004 55 273 8.0 17.0 0.00 0.10 0.00 100 994.9
20260904223503 55 280 6.0 16.0 0.00 0.10 0.00 100 994.9
20260904223005 55 289 4.0 11.0 0.00 0.10 0.00 100 994.9
20260904222504 55 294 4.0 12.0 0.00 0.10 0.00 100 995.9
20260904222004 55 274 3.0 12.0 0.00 0.10 0.00 100 995.9
20260904221503 55 265 3.0 12.0 0.00 0.10 0.00 100 995.9
20260904220504 55 193 1.0 8.0 0.00 0.10 0.00 100 995.9
20260904215503 55 0 0.0 0.0 0.00 0.10 0.10 100 995.9
20260904215005 55 0 0.0 0.0 0.00 0.10 0.10 100 995.9
20260904214503 55 0 0.0 0.0 0.00 0.10 0.10 100 995.9
20260904214005 55 0 0.0 0.0 0.00 0.10 0.10 100 995.9
20260904213503 55 0 0.0 0.0 0.00 0.10 0.10 100 995.9
20260904212504 56 225 0.0 2.0 0.00 0.10 0.10 100 995.9
20260904212004 56 225 0.0 2.0 0.00 0.10 0.10 100 995.9
20260904211503 56 0 0.0 0.0 0.00 0.10 0.10 100 995.9
20260904211005 56 0 0.0 0.0 0.00 0.10 0.10 100 995.9
20260904210503 56 185 1.0 8.0 0.00 0.10 0.10 100 995.9
20260904210005 56 196 2.0 8.0 0.00 0.10 0.10 100 995.9
20260904205503 56 219 1.0 6.0 0.00 0.10 0.10 100 995.9
20260904205004 56 231 1.0 4.0 0.00 0.10 0.10 100 995.9
20260904204504 56 238 1.0 5.0 0.00 0.10 0.10 100 995.9
20260904203004 56 219 1.0 6.0 0.00 0.10 0.10 100 995.9
20260904202004 56 232 0.0 3.0 0.00 0.10 0.10 100 995.9
20260904201504 56 0 0.0 0.0 0.00 0.10 0.10 100 995.9
20260904200503 56 0 0.0 0.0 0.00 0.10 0.10 100 995.9
20260904200005 56 0 0.0 0.0 0.00 0.10 0.10 100 995.9
20260904195503 56 0 0.0 0.0 0.00 0.10 0.10 100 995.9
20260904195005 56 0 0.0 0.0 0.00 0.10 0.10 100 995.9
20260904194503 56 0 0.0 0.0 0.00 0.10 0.10 100 995.9
20260904194005 56 0 0.0 0.0 0.00 0.10 0.10 100 995.9
20260904193503 56 0 0.0 0.0 0.00 0.10 0.10 100 995.9
20260904193004 56 0 0.0 0.0 0.00 0.16 0.10 100 995.9
20260904192504 56 0 0.0 0.0 0.00 0.16 0.10 97 995.9
20260904191503 56 0 0.0 0.0 0.00 0.16 0.10 97 995.9
20260904191005 56 0 0.0 0.0 0.00 0.16 0.10 97 995.9
20260904190503 56 0 0.0 0.0 0.00 0.16 0.10 97 995.9
20260904190005 56 0 0.0 0.0 0.00 0.16 0.10 97 995.9
20260904185503 56 0 0.0 0.0 0.00 0.16 0.10 97 995.9
20260904185005 56 0 0.0 0.0 0.00 0.16 0.10 97 995.9
20260904184503 56 248 0.0 4.0 0.00 0.16 0.10 97 995.9
20260904184005 56 248 0.0 4.0 0.00 0.16 0.10 97 995.9
20260904183504 56 0 0.0 0.0 0.00 0.16 0.10 97 995.9
20260904183005 57 0 0.0 0.0 0.00 0.16 0.10 97 995.9
20260904182504 57 0 0.0 0.0 0.00 0.16 0.10 97 995.9
20260904182005 57 0 0.0 0.0 0.00 0.16 0.10 97 995.9
20260904181503 57 0 0.0 0.0 0.00 0.16 0.10 97 995.9
20260904181005 57 0 0.0 0.0 0.00 0.16 0.10 96 995.9
20260904180503 57 0 0.0 0.0 0.00 0.16 0.10 96 995.9
20260904180005 57 0 0.0 0.0 0.00 0.16 0.10 96 995.9
20260904175503 57 0 0.0 0.0 0.00 0.16 0.10 96 995.9
20260904175005 57 0 0.0 0.0 0.00 0.16 0.10 96 995.9
20260904174503 57 0 0.0 0.0 0.00 0.16 0.10 96 995.9
20260904174004 58 0 0.0 0.0 0.00 0.16 0.10 96 995.9
20260904173504 58 0 0.0 0.0 0.00 0.16 0.10 96 995.9
20260904173004 58 0 0.0 0.0 0.00 0.16 0.10 96 995.9
20260904172504 58 0 0.0 0.0 0.00 0.16 0.10 96 996.9
20260904172004 58 227 0.0 3.0 0.00 0.16 0.10 96 996.9
20260904171004 59 225 0.0 2.0 0.00 0.16 0.10 95 995.9
20260904170504 59 281 0.0 2.0 0.00 0.16 0.10 96 995.9
20260904170005 59 237 0.0 2.0 0.00 0.16 0.10 96 995.9
20260904165504 60 218 0.0 2.0 0.00 0.16 0.10 96 995.9
20260904165004 60 248 0.0 2.0 0.00 0.16 0.10 96 995.9
20260904164503 60 0 0.0 0.0 0.00 0.16 0.10 95 995.9
20260904164005 60 0 0.0 0.0 0.00 0.16 0.10 95 995.9
20260904163503 60 266 0.0 3.0 0.00 0.16 0.10 96 995.9
20260904163004 60 266 0.0 3.0 0.00 0.16 0.10 96 995.9
20260904162504 60 0 0.0 0.0 0.00 0.21 0.10 96 995.9
20260904161504 59 0 0.0 0.0 0.00 0.21 0.10 96 995.9
20260904161004 59 0 0.0 0.0 0.00 0.21 0.10 96 995.9
20260904160503 59 337 0.0 3.0 0.00 0.21 0.10 96 995.9
20260904155005 60 330 1.0 6.0 0.00 0.21 0.10 96 995.9
20260904154503 59 337 1.0 6.0 0.00 0.21 0.10 96 995.9
20260904153005 58 321 2.0 6.0 0.00 0.21 0.10 97 995.9
20260904152503 58 324 3.0 6.0 0.00 0.21 0.10 97 995.9
20260904152005 58 327 3.0 5.0 0.00 0.21 0.10 97 995.9
20260904151503 58 325 1.0 5.0 0.00 0.21 0.10 96 995.9
20260904151005 59 304 0.0 4.0 0.00 0.21 0.10 96 995.9
20260904150005 59 317 1.0 6.0 0.00 0.26 0.10 96 995.9
20260904144503 58 314 0.0 4.0 0.00 0.26 0.10 96 995.9
20260904144004 58 314 0.0 3.0 0.00 0.31 0.10 95 996.9
20260904143504 58 314 0.0 3.0 0.00 0.31 0.10 95 996.9
20260904143004 58 299 0.0 3.0 0.00 0.31 0.10 96 996.9
20260904142504 58 310 2.0 6.0 0.00 0.36 0.10 95 996.9
20260904142005 58 317 4.0 7.0 0.00 0.36 0.10 95 996.9
20260904141504 58 320 2.0 7.0 0.00 0.36 0.10 95 996.9
20260904141005 58 305 0.0 3.0 0.00 0.36 0.10 95 996.9
20260904140503 58 312 1.0 6.0 0.00 0.36 0.10 95 996.9
20260904135503 59 313 2.0 7.0 0.00 0.36 0.10 95 996.9
20260904135004 59 315 2.0 7.0 0.00 0.41 0.10 95 996.9
20260904134504 59 321 1.0 7.0 0.00 0.41 0.10 95 996.9
20260904134004 59 0 0.0 0.0 0.00 0.41 0.10 95 996.9
20260904133004 60 280 0.0 2.0 0.00 0.41 0.10 95 996.9
20260904132504 60 248 0.0 1.0 0.00 0.46 0.10 95 996.9
20260904132004 60 192 0.0 5.0 0.00 0.46 0.10 95 996.9
20260904131504 60 192 0.0 5.0 0.00 0.46 0.10 95 996.9
20260904130504 60 200 3.0 6.0 0.00 0.46 0.10 94 997.9
20260904130004 60 195 3.0 6.0 0.00 0.46 0.10 94 997.9
20260904125504 60 197 3.0 6.0 0.00 0.46 0.10 94 997.9
20260904125004 60 197 3.0 6.0 0.00 0.46 0.10 94 997.9
20260904124504 60 197 2.0 5.0 0.00 0.46 0.10 94 997.9
20260904124004 60 197 3.0 7.0 0.00 0.41 0.05 94 997.9
20260904123504 60 199 4.0 7.0 0.00 0.41 0.05 94 997.9
20260904123005 60 194 4.0 7.0 0.00 0.41 0.05 94 997.9
20260904122505 60 197 4.0 8.0 0.00 0.41 0.05 94 996.9
20260904121504 60 200 2.0 7.0 0.00 0.41 0.05 93 996.9
20260904121004 60 199 3.0 7.0 0.00 0.41 0.05 93 997.9
20260904120005 60 198 3.0 5.0 0.00 0.41 0.05 92 997.9
20260904115005 60 188 1.0 5.0 0.00 0.41 0.05 92 997.9
20260904114504 60 192 1.0 5.0 0.00 0.41 0.05 91 997.9
20260904114004 60 197 1.0 5.0 0.00 0.41 0.05 91 997.9
20260904113503 60 203 0.0 2.0 0.00 0.41 0.05 91 997.9
20260904113004 60 0 0.0 0.0 0.00 0.41 0.05 91 997.9
20260904112503 60 181 0.0 1.0 0.00 0.41 0.05 90 997.9
20260904112005 60 161 0.0 5.0 0.00 0.41 0.05 89 997.9
20260904111503 60 172 1.0 5.0 0.00 0.36 0.00 89 997.9
20260904111005 60 182 0.0 3.0 0.00 0.36 0.00 89 998.9
20260904110503 60 203 0.0 1.0 0.00 0.36 0.00 88 998.9
20260904110005 60 0 0.0 0.0 0.00 0.36 0.00 88 998.9
20260904105503 60 164 0.0 4.0 0.00 0.36 0.00 88 998.9
20260904105005 60 183 1.0 4.0 0.00 0.36 0.00 87 998.9
20260904104504 60 188 1.0 3.0 0.00 0.36 0.00 87 998.9
20260904104005 60 176 1.0 5.0 0.00 0.36 0.00 87 998.9
20260904103504 60 173 1.0 5.0 0.00 0.36 0.00 87 998.9
20260904102504 61 185 1.0 4.0 0.00 0.36 0.00 86 998.9
20260904102004 61 174 0.0 4.0 0.00 0.36 0.00 86 998.9
20260904101504 61 0 0.0 0.0 0.00 0.36 0.00 86 998.9
20260904101004 61 0 0.0 0.0 0.00 0.36 0.00 85 999.9
20260904100503 62 0 0.0 0.0 0.00 0.36 0.00 85 999.9
20260904100004 62 236 0.0 4.0 0.00 0.42 0.00 84 999.9
20260904095004 62 217 2.0 11.0 0.00 0.53 0.00 83 1000.9
20260904094504 63 222 3.0 11.0 0.00 0.58 0.00 83 1000.9
20260904094004 63 222 3.0 7.0 0.00 0.58 0.00 84 999.9
20260904093504 63 225 3.0 9.0 0.00 0.58 0.00 84 999.9
20260904093004 63 214 3.0 9.0 0.00 0.58 0.00 83 999.9
20260904092503 63 230 3.0 7.0 0.00 0.58 0.00 83 999.9
20260904092005 63 236 3.0 8.0 0.00 0.58 0.00 83 999.9
20260904091504 63 226 4.0 9.0 0.00 0.58 0.00 83 999.9
20260904091004 63 232 3.0 9.0 0.00 0.58 0.00 83 999.9
20260904090504 63 233 2.0 7.0 0.00 0.58 0.00 83 999.9
20260904085005 63 219 3.0 8.0 0.00 0.58 0.00 82 999.9
20260904084005 63 235 3.0 5.0 0.00 0.58 0.00 81 999.9
20260904083503 63 234 3.0 8.0 0.00 0.58 0.00 81 999.9
20260904083004 63 238 3.0 8.0 0.00 0.58 0.00 81 999.9
20260904082503 63 239 3.0 8.0 0.00 0.58 0.00 82 999.9
20260904082005 63 224 3.0 9.0 0.00 0.58 0.00 81 999.9
20260904081503 63 212 3.0 9.0 0.00 0.58 0.00 80 999.9
20260904081005 63 209 2.0 6.0 0.00 0.58 0.00 82 999.9
20260904080503 63 212 2.0 8.0 0.00 0.58 0.00 83 999.9
20260904075503 62 229 2.0 6.0 0.00 0.58 0.00 85 999.9
20260904075005 62 229 2.0 8.0 0.00 0.58 0.00 85 999.9
20260904074504 62 249 2.0 8.0 0.00 0.58 0.00 84 999.9
20260904074005 62 276 2.0 5.0 0.00 0.58 0.00 85 1000.9
20260904073004 61 268 2.0 7.0 0.00 0.58 0.00 85 1000.9
20260904072503 61 275 1.0 6.0 0.00 0.58 0.00 85 1000.9
20260904072005 61 286 2.0 6.0 0.00 0.58 0.00 84 1000.9
20260904071504 61 287 2.0 13.0 0.00 0.58 0.00 84 1000.9
20260904071005 61 292 2.0 13.0 0.00 0.58 0.00 84 1000.9
20260904070504 60 298 2.0 11.0 0.00 0.58 0.00 84 1000.9
20260904070004 60 279 3.0 11.0 0.00 0.58 0.00 84 1000.9
20260904065504 60 255 3.0 7.0 0.00 0.58 0.00 85 1000.9
20260904064504 60 262 6.0 16.0 0.00 0.58 0.00 82 1000.9
20260904064004 60 253 5.0 16.0 0.00 0.58 0.00 83 1000.9
20260904063005 60 259 3.0 8.0 0.00 0.58 0.00 83 1000.9
20260904062504 60 275 2.0 10.0 0.00 0.58 0.00 85 1001.9
20260904062005 59 293 3.0 11.0 0.00 0.58 0.00 86 1001.9
20260904061503 59 280 6.0 14.0 0.00 0.58 0.00 85 1001.9
20260904061004 59 271 6.0 14.0 0.00 0.58 0.00 85 1001.9
20260904060503 59 276 5.0 14.0 0.00 0.58 0.00 86 1001.9
20260904060005 59 270 5.0 14.0 0.00 0.58 0.00 86 1001.9
20260904055503 59 281 4.0 11.0 0.00 0.58 0.00 87 1001.9
20260904055004 59 263 3.0 12.0 0.00 0.58 0.00 87 1001.9
20260904054005 59 273 5.0 17.0 0.00 0.58 0.00 87 1000.9
20260904053503 59 299 4.0 17.0 0.00 0.58 0.00 87 1000.9
20260904053004 58 292 4.0 10.0 0.00 0.58 0.00 87 1000.9
20260904052503 58 271 4.0 10.0 0.00 0.58 0.00 87 1001.9
20260904052004 58 258 4.0 12.0 0.00 0.58 0.00 87 1001.9
20260904051503 58 260 4.0 12.0 0.00 0.58 0.00 88 1001.9
20260904051004 58 265 3.0 8.0 0.00 0.58 0.00 88 1001.9
20260904050504 58 307 2.0 10.0 0.00 0.58 0.00 87 1001.9
20260904050005 58 296 3.0 10.0 0.00 0.58 0.00 87 1001.9
20260904045504 58 271 5.0 17.0 0.00 0.58 0.00 87 1000.9
20260904044504 58 262 3.0 11.0 0.00 0.58 0.00 87 1000.9
20260904044004 58 265 2.0 11.0 0.00 0.58 0.00 88 1001.9
20260904043005 58 277 4.0 17.0 0.00 0.58 0.00 87 1001.9